FIT����(1)(���z���E����)�̎��сi����j,PV(MWh),WT(MWh),���v(MWh)
2018/4/1 0:00,0,3.1,3.1
2018/4/1 0:30,0,2.6,2.6
2018/4/1 1:00,0,2.4,2.4
2018/4/1 1:30,0,2.1,2.1
2018/4/1 2:00,0,2,2
2018/4/1 2:30,0,2.1,2.1
2018/4/1 3:00,0,1.7,1.7
2018/4/1 3:30,0,1.3,1.3
2018/4/1 4:00,0,1.2,1.2
2018/4/1 4:30,0,1,1
2018/4/1 5:00,0,1,1
2018/4/1 5:30,0,0.9,0.9
2018/4/1 6:00,0,0.7,0.7
2018/4/1 6:30,0.4,0.6,1
2018/4/1 7:00,8.4,0.8,9.2
2018/4/1 7:30,23.1,0.9,24
2018/4/1 8:00,34.9,0.8,35.7
2018/4/1 8:30,46.4,0.8,47.2
2018/4/1 9:00,55.2,0.8,56
2018/4/1 9:30,73.8,0.7,74.5
2018/4/1 10:00,82.2,0.7,82.9
2018/4/1 10:30,86.8,0.7,87.5
2018/4/1 11:00,96.1,0.6,96.7
2018/4/1 11:30,99.6,0.6,100.2
2018/4/1 12:00,104.1,0.6,104.7
2018/4/1 12:30,111.5,0.5,112
2018/4/1 13:00,106.9,0.5,107.4
2018/4/1 13:30,99.3,0.5,99.8
2018/4/1 14:00,104.9,0.5,105.4
2018/4/1 14:30,101.3,0.5,101.8
2018/4/1 15:00,92,0.6,92.6
2018/4/1 15:30,79.4,0.6,80
2018/4/1 16:00,63.7,0.8,64.5
2018/4/1 16:30,45.7,0.9,46.6
2018/4/1 17:00,35.5,0.9,36.4
2018/4/1 17:30,19,1,20
2018/4/1 18:00,4.6,1,5.6
2018/4/1 18:30,0.4,1,1.4
2018/4/1 19:00,0,1.2,1.2
2018/4/1 19:30,0,1.1,1.1
2018/4/1 20:00,0,1.2,1.2
2018/4/1 20:30,0,1.2,1.2
2018/4/1 21:00,0,1.1,1.1
2018/4/1 21:30,0,1.1,1.1
2018/4/1 22:00,0,1.1,1.1
2018/4/1 22:30,0,1,1
2018/4/1 23:00,0,1.2,1.2
2018/4/1 23:30,0,1.1,1.1
2018/4/2 0:00,0,1.1,1.1
2018/4/2 0:30,0,1,1
2018/4/2 1:00,0,0.8,0.8
2018/4/2 1:30,0,0.8,0.8
2018/4/2 2:00,0,0.6,0.6
2018/4/2 2:30,0,0.6,0.6
2018/4/2 3:00,0,0.5,0.5
2018/4/2 3:30,0,0.5,0.5
2018/4/2 4:00,0,0.4,0.4
2018/4/2 4:30,0,0.4,0.4
2018/4/2 5:00,0,0.4,0.4
2018/4/2 5:30,0,0.4,0.4
2018/4/2 6:00,0,0.4,0.4
2018/4/2 6:30,0.6,0.3,0.9
2018/4/2 7:00,9.2,0.3,9.5
2018/4/2 7:30,24.5,0.4,24.9
2018/4/2 8:00,40.2,0.4,40.6
2018/4/2 8:30,55.1,0.4,55.5
2018/4/2 9:00,69.3,0.6,69.9
2018/4/2 9:30,80.8,0.5,81.3
2018/4/2 10:00,88.1,0.6,88.7
2018/4/2 10:30,90,0.6,90.6
2018/4/2 11:00,102,0.4,102.4
2018/4/2 11:30,109.5,0.4,109.9
2018/4/2 12:00,106.4,0.4,106.8
2018/4/2 12:30,102,0.4,102.4
2018/4/2 13:00,114.7,0.3,115
2018/4/2 13:30,113,0.4,113.4
2018/4/2 14:00,109.6,0.6,110.2
2018/4/2 14:30,102.3,0.6,102.9
2018/4/2 15:00,93.7,0.5,94.2
2018/4/2 15:30,82.4,0.6,83
2018/4/2 16:00,68.2,0.7,68.9
2018/4/2 16:30,54.2,0.6,54.8
2018/4/2 17:00,38.1,0.5,38.6
2018/4/2 17:30,21.3,0.4,21.7
2018/4/2 18:00,5.6,0.5,6.1
2018/4/2 18:30,0.4,0.5,0.9
2018/4/2 19:00,0,0.4,0.4
2018/4/2 19:30,0,0.4,0.4
2018/4/2 20:00,0,0.4,0.4
2018/4/2 20:30,0,0.5,0.5
2018/4/2 21:00,0,0.8,0.8
2018/4/2 21:30,0,0.7,0.7
2018/4/2 22:00,0,0.6,0.6
2018/4/2 22:30,0,0.6,0.6
2018/4/2 23:00,0,0.8,0.8
2018/4/2 23:30,0,0.9,0.9
2018/4/3 0:00,0,0.9,0.9
2018/4/3 0:30,0,0.8,0.8
2018/4/3 1:00,0,0.9,0.9
2018/4/3 1:30,0,0.9,0.9
2018/4/3 2:00,0,0.9,0.9
2018/4/3 2:30,0,0.8,0.8
2018/4/3 3:00,0,0.9,0.9
2018/4/3 3:30,0,0.8,0.8
2018/4/3 4:00,0,0.6,0.6
2018/4/3 4:30,0,0.5,0.5
2018/4/3 5:00,0,0.5,0.5
2018/4/3 5:30,0,0.7,0.7
2018/4/3 6:00,0,0.7,0.7
2018/4/3 6:30,0.6,0.9,1.5
2018/4/3 7:00,9.2,0.7,9.9
2018/4/3 7:30,24.8,0.9,25.7
2018/4/3 8:00,39.7,0.8,40.5
2018/4/3 8:30,53.8,1,54.8
2018/4/3 9:00,62.4,0.9,63.3
2018/4/3 9:30,68,0.9,68.9
2018/4/3 10:00,79.5,0.9,80.4
2018/4/3 10:30,87.2,1.2,88.4
2018/4/3 11:00,91.1,1.1,92.2
2018/4/3 11:30,87.4,1.2,88.6
2018/4/3 12:00,91.5,1.1,92.6
2018/4/3 12:30,102.6,1.2,103.8
2018/4/3 13:00,103.4,0.9,104.3
2018/4/3 13:30,101.9,0.9,102.8
2018/4/3 14:00,100,0.9,100.9
2018/4/3 14:30,88.7,0.7,89.4
2018/4/3 15:00,76,0.6,76.6
2018/4/3 15:30,69.7,0.6,70.3
2018/4/3 16:00,62.3,0.9,63.2
2018/4/3 16:30,50,0.9,50.9
2018/4/3 17:00,36.9,0.7,37.6
2018/4/3 17:30,19.9,0.7,20.6
2018/4/3 18:00,4.8,0.6,5.4
2018/4/3 18:30,0.4,0.5,0.9
2018/4/3 19:00,0,0.4,0.4
2018/4/3 19:30,0,0.5,0.5
2018/4/3 20:00,0,0.6,0.6
2018/4/3 20:30,0,0.6,0.6
2018/4/3 21:00,0,0.7,0.7
2018/4/3 21:30,0,0.8,0.8
2018/4/3 22:00,0,0.9,0.9
2018/4/3 22:30,0,1,1
2018/4/3 23:00,0,1.1,1.1
2018/4/3 23:30,0,1.1,1.1
2018/4/4 0:00,0,1,1
2018/4/4 0:30,0,1.2,1.2
2018/4/4 1:00,0,1.5,1.5
2018/4/4 1:30,0,1.3,1.3
2018/4/4 2:00,0,1,1
2018/4/4 2:30,0,0.9,0.9
2018/4/4 3:00,0,0.9,0.9
2018/4/4 3:30,0,0.8,0.8
2018/4/4 4:00,0,0.8,0.8
2018/4/4 4:30,0,0.7,0.7
2018/4/4 5:00,0,0.8,0.8
2018/4/4 5:30,0,0.8,0.8
2018/4/4 6:00,0,0.9,0.9
2018/4/4 6:30,0.7,0.9,1.6
2018/4/4 7:00,8.6,0.9,9.5
2018/4/4 7:30,22.4,0.9,23.3
2018/4/4 8:00,38.2,1,39.2
2018/4/4 8:30,53.3,1.1,54.4
2018/4/4 9:00,67.1,1,68.1
2018/4/4 9:30,74.5,1.1,75.6
2018/4/4 10:00,86.7,1,87.7
2018/4/4 10:30,94.9,1,95.9
2018/4/4 11:00,99.7,0.8,100.5
2018/4/4 11:30,104.2,0.9,105.1
2018/4/4 12:00,107.4,1.4,108.8
2018/4/4 12:30,110.3,1.4,111.7
2018/4/4 13:00,109.4,1,110.4
2018/4/4 13:30,109.1,1.5,110.6
2018/4/4 14:00,93.1,1.5,94.6
2018/4/4 14:30,90.5,1.1,91.6
2018/4/4 15:00,86.7,0.9,87.6
2018/4/4 15:30,77.4,1.1,78.5
2018/4/4 16:00,59.7,1,60.7
2018/4/4 16:30,40.1,0.9,41
2018/4/4 17:00,28.5,0.8,29.3
2018/4/4 17:30,14.8,0.8,15.6
2018/4/4 18:00,4.3,0.8,5.1
2018/4/4 18:30,0.5,0.7,1.2
2018/4/4 19:00,0,0.8,0.8
2018/4/4 19:30,0,0.7,0.7
2018/4/4 20:00,0,0.7,0.7
2018/4/4 20:30,0,0.7,0.7
2018/4/4 21:00,0,0.6,0.6
2018/4/4 21:30,0,0.7,0.7
2018/4/4 22:00,0,0.6,0.6
2018/4/4 22:30,0,0.6,0.6
2018/4/4 23:00,0,0.8,0.8
2018/4/4 23:30,0,0.8,0.8
2018/4/5 0:00,0,0.8,0.8
2018/4/5 0:30,0,0.8,0.8
2018/4/5 1:00,0,0.7,0.7
2018/4/5 1:30,0,0.8,0.8
2018/4/5 2:00,0,0.8,0.8
2018/4/5 2:30,0,0.7,0.7
2018/4/5 3:00,0,0.8,0.8
2018/4/5 3:30,0,0.8,0.8
2018/4/5 4:00,0,0.9,0.9
2018/4/5 4:30,0,0.8,0.8
2018/4/5 5:00,0,0.8,0.8
2018/4/5 5:30,0,0.9,0.9
2018/4/5 6:00,0,1.1,1.1
2018/4/5 6:30,1.1,1.1,2.2
2018/4/5 7:00,10.2,1.1,11.3
2018/4/5 7:30,25.2,1.3,26.5
2018/4/5 8:00,31.5,1.3,32.8
2018/4/5 8:30,36.9,1.6,38.5
2018/4/5 9:00,60.6,1.7,62.3
2018/4/5 9:30,75.1,1.6,76.7
2018/4/5 10:00,87.1,1.7,88.8
2018/4/5 10:30,96.5,1.5,98
2018/4/5 11:00,101.6,1.7,103.3
2018/4/5 11:30,98.1,1.9,100
2018/4/5 12:00,103.3,1.8,105.1
2018/4/5 12:30,94.2,1.8,96
2018/4/5 13:00,104.9,1.8,106.7
2018/4/5 13:30,107.2,1.9,109.1
2018/4/5 14:00,106.7,1.9,108.6
2018/4/5 14:30,97.2,1.9,99.1
2018/4/5 15:00,87.9,2,89.9
2018/4/5 15:30,76.2,2.2,78.4
2018/4/5 16:00,60.8,2.2,63
2018/4/5 16:30,46.9,2.3,49.2
2018/4/5 17:00,27.9,2.3,30.2
2018/4/5 17:30,17.1,2.3,19.4
2018/4/5 18:00,2.9,2.3,5.2
2018/4/5 18:30,0.5,2.3,2.8
2018/4/5 19:00,0,2.3,2.3
2018/4/5 19:30,0,2.5,2.5
2018/4/5 20:00,0,2.7,2.7
2018/4/5 20:30,0,2.9,2.9
2018/4/5 21:00,0,2.7,2.7
2018/4/5 21:30,0,2.4,2.4
2018/4/5 22:00,0,2,2
2018/4/5 22:30,0,2.1,2.1
2018/4/5 23:00,0,2.2,2.2
2018/4/5 23:30,0,2.1,2.1
2018/4/6 0:00,0,2.4,2.4
2018/4/6 0:30,0,2.5,2.5
2018/4/6 1:00,0,1.9,1.9
2018/4/6 1:30,0,1.6,1.6
2018/4/6 2:00,0,1.3,1.3
2018/4/6 2:30,0,1,1
2018/4/6 3:00,0,0.9,0.9
2018/4/6 3:30,0,0.9,0.9
2018/4/6 4:00,0,0.7,0.7
2018/4/6 4:30,0,0.8,0.8
2018/4/6 5:00,0,0.8,0.8
2018/4/6 5:30,0,1.2,1.2
2018/4/6 6:00,0,1.4,1.4
2018/4/6 6:30,0.5,1.3,1.8
2018/4/6 7:00,5.4,1.4,6.8
2018/4/6 7:30,15,1.6,16.6
2018/4/6 8:00,22.7,1.6,24.3
2018/4/6 8:30,36.5,1.4,37.9
2018/4/6 9:00,52.8,1.5,54.3
2018/4/6 9:30,63.4,1.9,65.3
2018/4/6 10:00,75,2.3,77.3
2018/4/6 10:30,78.2,2.6,80.8
2018/4/6 11:00,91,2.6,93.6
2018/4/6 11:30,92.8,3,95.8
2018/4/6 12:00,86.8,2.7,89.5
2018/4/6 12:30,77.4,2.3,79.7
2018/4/6 13:00,60.2,3.6,63.8
2018/4/6 13:30,42.6,3.8,46.4
2018/4/6 14:00,48.5,4.5,53
2018/4/6 14:30,26,3.7,29.7
2018/4/6 15:00,21,4.6,25.6
2018/4/6 15:30,13.5,5,18.5
2018/4/6 16:00,21.4,5.2,26.6
2018/4/6 16:30,21.5,5.6,27.1
2018/4/6 17:00,10.5,5.9,16.4
2018/4/6 17:30,3,7.1,10.1
2018/4/6 18:00,1.6,7.3,8.9
2018/4/6 18:30,0.5,7.1,7.6
2018/4/6 19:00,0,7.5,7.5
2018/4/6 19:30,0,7.3,7.3
2018/4/6 20:00,0,7.6,7.6
2018/4/6 20:30,0,7.6,7.6
2018/4/6 21:00,0,7.8,7.8
2018/4/6 21:30,0,7.8,7.8
2018/4/6 22:00,0,7.8,7.8
2018/4/6 22:30,0,7.8,7.8
2018/4/6 23:00,0,7.6,7.6
2018/4/6 23:30,0,7.7,7.7
2018/4/7 0:00,0,7.6,7.6
2018/4/7 0:30,0,7.7,7.7
2018/4/7 1:00,0,7.7,7.7
2018/4/7 1:30,0,7.7,7.7
2018/4/7 2:00,0,7.6,7.6
2018/4/7 2:30,0,7.7,7.7
2018/4/7 3:00,0,7.7,7.7
2018/4/7 3:30,0,7.7,7.7
2018/4/7 4:00,0,7.7,7.7
2018/4/7 4:30,0,7.7,7.7
2018/4/7 5:00,0,7.7,7.7
2018/4/7 5:30,0,7.7,7.7
2018/4/7 6:00,0,7.7,7.7
2018/4/7 6:30,0.6,7.6,8.2
2018/4/7 7:00,1.6,7.6,9.2
2018/4/7 7:30,5.1,7.5,12.6
2018/4/7 8:00,6.7,7.3,14
2018/4/7 8:30,12.5,7.3,19.8
2018/4/7 9:00,12.4,7.7,20.1
2018/4/7 9:30,9.3,7.1,16.4
2018/4/7 10:00,7.3,7.2,14.5
2018/4/7 10:30,10.3,6.7,17
2018/4/7 11:00,12.9,6.3,19.2
2018/4/7 11:30,13.7,6.4,20.1
2018/4/7 12:00,14.7,6.5,21.2
2018/4/7 12:30,20,6.5,26.5
2018/4/7 13:00,27.1,6.5,33.6
2018/4/7 13:30,30.7,6.6,37.3
2018/4/7 14:00,45.5,6.4,51.9
2018/4/7 14:30,46.9,6.3,53.2
2018/4/7 15:00,44,6.3,50.3
2018/4/7 15:30,37.4,6.4,43.8
2018/4/7 16:00,40.2,6.1,46.3
2018/4/7 16:30,28.8,6.4,35.2
2018/4/7 17:00,17.9,6.5,24.4
2018/4/7 17:30,3.6,6.6,10.2
2018/4/7 18:00,1.5,6.6,8.1
2018/4/7 18:30,0.5,6.6,7.1
2018/4/7 19:00,0,6.3,6.3
2018/4/7 19:30,0,6,6
2018/4/7 20:00,0,6.2,6.2
2018/4/7 20:30,0,5.8,5.8
2018/4/7 21:00,0,5.6,5.6
2018/4/7 21:30,0,5.5,5.5
2018/4/7 22:00,0,5.2,5.2
2018/4/7 22:30,0,4.8,4.8
2018/4/7 23:00,0,4.3,4.3
2018/4/7 23:30,0,3.8,3.8
2018/4/8 0:00,0,3.6,3.6
2018/4/8 0:30,0,3.3,3.3
2018/4/8 1:00,0,3.4,3.4
2018/4/8 1:30,0,3.3,3.3
2018/4/8 2:00,0,3.4,3.4
2018/4/8 2:30,0,3.1,3.1
2018/4/8 3:00,0,2.9,2.9
2018/4/8 3:30,0,3,3
2018/4/8 4:00,0,2.9,2.9
2018/4/8 4:30,0,3.2,3.2
2018/4/8 5:00,0,3.5,3.5
2018/4/8 5:30,0,2.8,2.8
2018/4/8 6:00,0,2.5,2.5
2018/4/8 6:30,0.8,2.2,3
2018/4/8 7:00,8.4,2.2,10.6
2018/4/8 7:30,24.7,1.9,26.6
2018/4/8 8:00,36.8,1.7,38.5
2018/4/8 8:30,44,1.4,45.4
2018/4/8 9:00,59,1.1,60.1
2018/4/8 9:30,70.9,0.8,71.7
2018/4/8 10:00,85.4,0.8,86.2
2018/4/8 10:30,92,0.6,92.6
2018/4/8 11:00,101.3,0.6,101.9
2018/4/8 11:30,107.3,0.5,107.8
2018/4/8 12:00,108.6,0.3,108.9
2018/4/8 12:30,112.8,0.4,113.2
2018/4/8 13:00,116.2,0.4,116.6
2018/4/8 13:30,117.1,0.2,117.3
2018/4/8 14:00,111.9,0.1,112
2018/4/8 14:30,103.5,0.1,103.6
2018/4/8 15:00,93.7,0.1,93.8
2018/4/8 15:30,79.3,0.1,79.4
2018/4/8 16:00,67.3,0.1,67.4
2018/4/8 16:30,54.3,0,54.3
2018/4/8 17:00,37,0,37
2018/4/8 17:30,20.8,0,20.8
2018/4/8 18:00,5.6,0,5.6
2018/4/8 18:30,0.5,0,0.5
2018/4/8 19:00,0,0,0
2018/4/8 19:30,0,0,0
2018/4/8 20:00,0,0,0
2018/4/8 20:30,0,0,0
2018/4/8 21:00,0,0,0
2018/4/8 21:30,0,0,0
2018/4/8 22:00,0,0.1,0.1
2018/4/8 22:30,0,0,0
2018/4/8 23:00,0,0,0
2018/4/8 23:30,0,0,0
2018/4/9 0:00,0,0,0
2018/4/9 0:30,0,0,0
2018/4/9 1:00,0,0,0
2018/4/9 1:30,0,0,0
2018/4/9 2:00,0,0,0
2018/4/9 2:30,0,0,0
2018/4/9 3:00,0,0,0
2018/4/9 3:30,0,0,0
2018/4/9 4:00,0,0,0
2018/4/9 4:30,0,0,0
2018/4/9 5:00,0,0,0
2018/4/9 5:30,0,0,0
2018/4/9 6:00,0,0,0
2018/4/9 6:30,1.5,0,1.5
2018/4/9 7:00,12.5,0,12.5
2018/4/9 7:30,28.1,0,28.1
2018/4/9 8:00,44,0,44
2018/4/9 8:30,59.3,0,59.3
2018/4/9 9:00,73.2,0,73.2
2018/4/9 9:30,83.5,0,83.5
2018/4/9 10:00,88.3,0,88.3
2018/4/9 10:30,95.9,0,95.9
2018/4/9 11:00,105.4,0,105.4
2018/4/9 11:30,109.7,0,109.7
2018/4/9 12:00,116.8,0,116.8
2018/4/9 12:30,109.9,0,109.9
2018/4/9 13:00,119.3,0,119.3
2018/4/9 13:30,118.6,0,118.6
2018/4/9 14:00,113,0.1,113.1
2018/4/9 14:30,105.3,0.1,105.4
2018/4/9 15:00,96.2,0.1,96.3
2018/4/9 15:30,85,0.2,85.2
2018/4/9 16:00,71.3,0.2,71.5
2018/4/9 16:30,55.9,0.2,56.1
2018/4/9 17:00,38.3,0.2,38.5
2018/4/9 17:30,21.9,0.2,22.1
2018/4/9 18:00,6.4,0.3,6.7
2018/4/9 18:30,0.5,0.4,0.9
2018/4/9 19:00,0,0.4,0.4
2018/4/9 19:30,0,0.6,0.6
2018/4/9 20:00,0,0.6,0.6
2018/4/9 20:30,0,0.9,0.9
2018/4/9 21:00,0,0.9,0.9
2018/4/9 21:30,0,1,1
2018/4/9 22:00,0,1.1,1.1
2018/4/9 22:30,0,1.2,1.2
2018/4/9 23:00,0,1.1,1.1
2018/4/9 23:30,0,1.3,1.3
2018/4/10 0:00,0,1.3,1.3
2018/4/10 0:30,0,1.1,1.1
2018/4/10 1:00,0,1.2,1.2
2018/4/10 1:30,0,1,1
2018/4/10 2:00,0,1,1
2018/4/10 2:30,0,1,1
2018/4/10 3:00,0,0.9,0.9
2018/4/10 3:30,0,0.8,0.8
2018/4/10 4:00,0,0.8,0.8
2018/4/10 4:30,0,0.8,0.8
2018/4/10 5:00,0,1,1
2018/4/10 5:30,0,0.9,0.9
2018/4/10 6:00,0.1,0.8,0.9
2018/4/10 6:30,1.5,0.6,2.1
2018/4/10 7:00,12.7,0.4,13.1
2018/4/10 7:30,27.6,0.6,28.2
2018/4/10 8:00,43.7,0.7,44.4
2018/4/10 8:30,58.5,0.7,59.2
2018/4/10 9:00,71.8,0.8,72.6
2018/4/10 9:30,83.3,1,84.3
2018/4/10 10:00,92.7,1.1,93.8
2018/4/10 10:30,97.4,1,98.4
2018/4/10 11:00,99.3,1.1,100.4
2018/4/10 11:30,97.1,1.1,98.2
2018/4/10 12:00,98.6,1.1,99.7
2018/4/10 12:30,106,1.2,107.2
2018/4/10 13:00,102.4,1.1,103.5
2018/4/10 13:30,103.1,1.1,104.2
2018/4/10 14:00,95.9,1.1,97
2018/4/10 14:30,84.9,1.3,86.2
2018/4/10 15:00,78.6,1.4,80
2018/4/10 15:30,68.9,1.6,70.5
2018/4/10 16:00,56.5,2,58.5
2018/4/10 16:30,45.7,2,47.7
2018/4/10 17:00,27.5,2,29.5
2018/4/10 17:30,14.4,2,16.4
2018/4/10 18:00,2.7,2.1,4.8
2018/4/10 18:30,0.6,2.3,2.9
2018/4/10 19:00,0,2.3,2.3
2018/4/10 19:30,0,2.1,2.1
2018/4/10 20:00,0,2.3,2.3
2018/4/10 20:30,0,2.8,2.8
2018/4/10 21:00,0,2.7,2.7
2018/4/10 21:30,0,2.3,2.3
2018/4/10 22:00,0,2.4,2.4
2018/4/10 22:30,0,2,2
2018/4/10 23:00,0,2.6,2.6
2018/4/10 23:30,0,3,3
2018/4/11 0:00,0,3.2,3.2
2018/4/11 0:30,0,3.7,3.7
2018/4/11 1:00,0,3.3,3.3
2018/4/11 1:30,0,2.9,2.9
2018/4/11 2:00,0,3,3
2018/4/11 2:30,0,2.5,2.5
2018/4/11 3:00,0,2.1,2.1
2018/4/11 3:30,0,2.6,2.6
2018/4/11 4:00,0,2.6,2.6
2018/4/11 4:30,0,2.5,2.5
2018/4/11 5:00,0,2.2,2.2
2018/4/11 5:30,0,2.4,2.4
2018/4/11 6:00,0.1,2.6,2.7
2018/4/11 6:30,0.7,2.1,2.8
2018/4/11 7:00,2.8,2,4.8
2018/4/11 7:30,7,2,9
2018/4/11 8:00,21.8,2.2,24
2018/4/11 8:30,23.6,2,25.6
2018/4/11 9:00,17.1,1.7,18.8
2018/4/11 9:30,40.4,1.9,42.3
2018/4/11 10:00,49.7,1.9,51.6
2018/4/11 10:30,55.7,1.9,57.6
2018/4/11 11:00,47.9,2.1,50
2018/4/11 11:30,47.2,1.6,48.8
2018/4/11 12:00,48.6,1.5,50.1
2018/4/11 12:30,59.1,1.3,60.4
2018/4/11 13:00,57.8,1.5,59.3
2018/4/11 13:30,54.7,1.5,56.2
2018/4/11 14:00,63.9,1.1,65
2018/4/11 14:30,58,1.3,59.3
2018/4/11 15:00,52.1,1.3,53.4
2018/4/11 15:30,53.2,1.3,54.5
2018/4/11 16:00,44.2,1.1,45.3
2018/4/11 16:30,34.6,1,35.6
2018/4/11 17:00,14.1,0.8,14.9
2018/4/11 17:30,4.7,0.7,5.4
2018/4/11 18:00,1.5,0.8,2.3
2018/4/11 18:30,0.6,1.1,1.7
2018/4/11 19:00,0,2,2
2018/4/11 19:30,0,2,2
2018/4/11 20:00,0,2.4,2.4
2018/4/11 20:30,0,2.2,2.2
2018/4/11 21:00,0,1.2,1.2
2018/4/11 21:30,0,1.1,1.1
2018/4/11 22:00,0,1.1,1.1
2018/4/11 22:30,0,1.6,1.6
2018/4/11 23:00,0,1.5,1.5
2018/4/11 23:30,0,1.3,1.3
2018/4/12 0:00,0,2,2
2018/4/12 0:30,0,1.9,1.9
2018/4/12 1:00,0,1.4,1.4
2018/4/12 1:30,0,1.3,1.3
2018/4/12 2:00,0,1.5,1.5
2018/4/12 2:30,0,2,2
2018/4/12 3:00,0,2,2
2018/4/12 3:30,0,1.5,1.5
2018/4/12 4:00,0,1.5,1.5
2018/4/12 4:30,0,1.5,1.5
2018/4/12 5:00,0,2.1,2.1
2018/4/12 5:30,0,1.7,1.7
2018/4/12 6:00,0.1,1.7,1.8
2018/4/12 6:30,2.1,1.8,3.9
2018/4/12 7:00,8.3,1.5,9.8
2018/4/12 7:30,20,1.3,21.3
2018/4/12 8:00,29.3,0.8,30.1
2018/4/12 8:30,31.6,0.6,32.2
2018/4/12 9:00,50.2,0.3,50.5
2018/4/12 9:30,54.7,0.3,55
2018/4/12 10:00,76.9,0.6,77.5
2018/4/12 10:30,86.5,0.6,87.1
2018/4/12 11:00,82.4,0.6,83
2018/4/12 11:30,78.9,0.6,79.5
2018/4/12 12:00,62.1,1.1,63.2
2018/4/12 12:30,43.5,1.9,45.4
2018/4/12 13:00,46.8,1.3,48.1
2018/4/12 13:30,45.6,1.9,47.5
2018/4/12 14:00,26.5,1.5,28
2018/4/12 14:30,24.4,1.3,25.7
2018/4/12 15:00,23.7,1.3,25
2018/4/12 15:30,13.3,1.5,14.8
2018/4/12 16:00,27.6,1.7,29.3
2018/4/12 16:30,17.2,1.5,18.7
2018/4/12 17:00,7,0.7,7.7
2018/4/12 17:30,2.3,0.6,2.9
2018/4/12 18:00,1.6,0.3,1.9
2018/4/12 18:30,0.4,0.5,0.9
2018/4/12 19:00,0,1,1
2018/4/12 19:30,0,2,2
2018/4/12 20:00,0,1.6,1.6
2018/4/12 20:30,0,1.1,1.1
2018/4/12 21:00,0,0.3,0.3
2018/4/12 21:30,0,0.3,0.3
2018/4/12 22:00,0,0.6,0.6
2018/4/12 22:30,0,0.4,0.4
2018/4/12 23:00,0,0.1,0.1
2018/4/12 23:30,0,0.2,0.2
2018/4/13 0:00,0,0.3,0.3
2018/4/13 0:30,0,0.6,0.6
2018/4/13 1:00,0,0.4,0.4
2018/4/13 1:30,0,0.5,0.5
2018/4/13 2:00,0,0.8,0.8
2018/4/13 2:30,0,0.5,0.5
2018/4/13 3:00,0,0.4,0.4
2018/4/13 3:30,0,0.4,0.4
2018/4/13 4:00,0,0.7,0.7
2018/4/13 4:30,0,0.6,0.6
2018/4/13 5:00,0,0.5,0.5
2018/4/13 5:30,0,0.4,0.4
2018/4/13 6:00,0.1,0.4,0.5
2018/4/13 6:30,0.8,0.1,0.9
2018/4/13 7:00,7.9,0,7.9
2018/4/13 7:30,29.6,0,29.6
2018/4/13 8:00,43.4,0,43.4
2018/4/13 8:30,50.8,0,50.8
2018/4/13 9:00,60.2,0,60.2
2018/4/13 9:30,56.4,0,56.4
2018/4/13 10:00,62.6,0,62.6
2018/4/13 10:30,68.8,0,68.8
2018/4/13 11:00,85.9,0,85.9
2018/4/13 11:30,96.4,0,96.4
2018/4/13 12:00,103.9,0,103.9
2018/4/13 12:30,107.9,0,107.9
2018/4/13 13:00,97.9,0.1,98
2018/4/13 13:30,93.3,0,93.3
2018/4/13 14:00,80.2,0,80.2
2018/4/13 14:30,83.9,0.1,84
2018/4/13 15:00,81.1,0.1,81.2
2018/4/13 15:30,67.7,0.2,67.9
2018/4/13 16:00,56.2,0.3,56.5
2018/4/13 16:30,46.4,0.4,46.8
2018/4/13 17:00,30.9,0.5,31.4
2018/4/13 17:30,17.7,0.6,18.3
2018/4/13 18:00,3.9,0.9,4.8
2018/4/13 18:30,0.4,0.9,1.3
2018/4/13 19:00,0,1,1
2018/4/13 19:30,0,0.9,0.9
2018/4/13 20:00,0,0.7,0.7
2018/4/13 20:30,0,0.6,0.6
2018/4/13 21:00,0,0.7,0.7
2018/4/13 21:30,0,0.7,0.7
2018/4/13 22:00,0,1,1
2018/4/13 22:30,0,1.2,1.2
2018/4/13 23:00,0,1.1,1.1
2018/4/13 23:30,0,1.1,1.1
2018/4/14 0:00,0,1.4,1.4
2018/4/14 0:30,0,1.2,1.2
2018/4/14 1:00,0,1.3,1.3
2018/4/14 1:30,0,1.5,1.5
2018/4/14 2:00,0,1.5,1.5
2018/4/14 2:30,0,1.7,1.7
2018/4/14 3:00,0,1.5,1.5
2018/4/14 3:30,0,1.7,1.7
2018/4/14 4:00,0,1.6,1.6
2018/4/14 4:30,0,1.7,1.7
2018/4/14 5:00,0,1.7,1.7
2018/4/14 5:30,0,1.7,1.7
2018/4/14 6:00,0.2,2.4,2.6
2018/4/14 6:30,1,2.4,3.4
2018/4/14 7:00,7.8,2.3,10.1
2018/4/14 7:30,15.1,2.2,17.3
2018/4/14 8:00,28.5,2.6,31.1
2018/4/14 8:30,46.9,3,49.9
2018/4/14 9:00,57.2,3.7,60.9
2018/4/14 9:30,68.2,3.7,71.9
2018/4/14 10:00,82.2,3.4,85.6
2018/4/14 10:30,89.1,3.3,92.4
2018/4/14 11:00,97.3,3.5,100.8
2018/4/14 11:30,97.5,3.7,101.2
2018/4/14 12:00,99.5,4.8,104.3
2018/4/14 12:30,99.5,4.4,103.9
2018/4/14 13:00,99.8,4.3,104.1
2018/4/14 13:30,93.3,4.4,97.7
2018/4/14 14:00,86.1,3.7,89.8
2018/4/14 14:30,75.1,3.4,78.5
2018/4/14 15:00,58.4,2.9,61.3
2018/4/14 15:30,51.2,2.6,53.8
2018/4/14 16:00,35.9,2.6,38.5
2018/4/14 16:30,38.7,2.6,41.3
2018/4/14 17:00,22.4,2.7,25.1
2018/4/14 17:30,8.5,2.3,10.8
2018/4/14 18:00,3.2,2.6,5.8
2018/4/14 18:30,0.5,2.2,2.7
2018/4/14 19:00,0,2.1,2.1
2018/4/14 19:30,0,2.1,2.1
2018/4/14 20:00,0,1.9,1.9
2018/4/14 20:30,0,1.5,1.5
2018/4/14 21:00,0,1.5,1.5
2018/4/14 21:30,0,1.5,1.5
2018/4/14 22:00,0,1.4,1.4
2018/4/14 22:30,0,1.3,1.3
2018/4/14 23:00,0,1.3,1.3
2018/4/14 23:30,0,1.4,1.4
2018/4/15 0:00,0,1.6,1.6
2018/4/15 0:30,0,1.9,1.9
2018/4/15 1:00,0,1.2,1.2
2018/4/15 1:30,0,0.9,0.9
2018/4/15 2:00,0,1.1,1.1
2018/4/15 2:30,0,1.2,1.2
2018/4/15 3:00,0,1.1,1.1
2018/4/15 3:30,0,1,1
2018/4/15 4:00,0,0.9,0.9
2018/4/15 4:30,0,1.3,1.3
2018/4/15 5:00,0,1.3,1.3
2018/4/15 5:30,0,1.6,1.6
2018/4/15 6:00,0.2,2.3,2.5
2018/4/15 6:30,0.8,2.8,3.6
2018/4/15 7:00,3.7,2.9,6.6
2018/4/15 7:30,6.7,3,9.7
2018/4/15 8:00,10.1,3.1,13.2
2018/4/15 8:30,16.9,3.6,20.5
2018/4/15 9:00,14.8,4,18.8
2018/4/15 9:30,8.5,4.6,13.1
2018/4/15 10:00,13.5,3.9,17.4
2018/4/15 10:30,9.8,3,12.8
2018/4/15 11:00,23.3,2.8,26.1
2018/4/15 11:30,23.4,2.8,26.2
2018/4/15 12:00,21.6,2.8,24.4
2018/4/15 12:30,15.1,3.4,18.5
2018/4/15 13:00,12.4,4.2,16.6
2018/4/15 13:30,15.8,4.1,19.9
2018/4/15 14:00,12.1,4,16.1
2018/4/15 14:30,14.2,4,18.2
2018/4/15 15:00,11.8,3.2,15
2018/4/15 15:30,15.5,3.1,18.6
2018/4/15 16:00,8.6,3.4,12
2018/4/15 16:30,6.4,3.5,9.9
2018/4/15 17:00,6.7,3.5,10.2
2018/4/15 17:30,5.6,3.1,8.7
2018/4/15 18:00,1.5,3,4.5
2018/4/15 18:30,0.5,3.4,3.9
2018/4/15 19:00,0,3,3
2018/4/15 19:30,0,3.1,3.1
2018/4/15 20:00,0,2.6,2.6
2018/4/15 20:30,0,2.5,2.5
2018/4/15 21:00,0,2.2,2.2
2018/4/15 21:30,0,2.1,2.1
2018/4/15 22:00,0,1.3,1.3
2018/4/15 22:30,0,1,1
2018/4/15 23:00,0,1.4,1.4
2018/4/15 23:30,0,1.8,1.8
2018/4/16 0:00,0,1.8,1.8
2018/4/16 0:30,0,1.9,1.9
2018/4/16 1:00,0,2,2
2018/4/16 1:30,0,1.8,1.8
2018/4/16 2:00,0,1.8,1.8
2018/4/16 2:30,0,1.8,1.8
2018/4/16 3:00,0,2.1,2.1
2018/4/16 3:30,0,1.9,1.9
2018/4/16 4:00,0,2.4,2.4
2018/4/16 4:30,0,2.2,2.2
2018/4/16 5:00,0,2.1,2.1
2018/4/16 5:30,0,2.3,2.3
2018/4/16 6:00,0.2,2.1,2.3
2018/4/16 6:30,1,2,3
2018/4/16 7:00,7.3,1.7,9
2018/4/16 7:30,21.3,1.3,22.6
2018/4/16 8:00,32.7,1,33.7
2018/4/16 8:30,32.7,0.9,33.6
2018/4/16 9:00,51.4,0.9,52.3
2018/4/16 9:30,61,0.6,61.6
2018/4/16 10:00,50.4,0.5,50.9
2018/4/16 10:30,37.7,0.4,38.1
2018/4/16 11:00,65.3,0.3,65.6
2018/4/16 11:30,79.1,0.3,79.4
2018/4/16 12:00,69.4,0.2,69.6
2018/4/16 12:30,70.5,0.4,70.9
2018/4/16 13:00,68.7,0.4,69.1
2018/4/16 13:30,43.2,0.4,43.6
2018/4/16 14:00,29.5,0.4,29.9
2018/4/16 14:30,47.1,0.3,47.4
2018/4/16 15:00,41,0.4,41.4
2018/4/16 15:30,20.4,0.5,20.9
2018/4/16 16:00,13.6,0.3,13.9
2018/4/16 16:30,8.7,0.2,8.9
2018/4/16 17:00,4.7,0.1,4.8
2018/4/16 17:30,3.1,0.1,3.2
2018/4/16 18:00,2,0.1,2.1
2018/4/16 18:30,0.5,0.1,0.6
2018/4/16 19:00,0,0.2,0.2
2018/4/16 19:30,0,0.2,0.2
2018/4/16 20:00,0,0.1,0.1
2018/4/16 20:30,0,0,0
2018/4/16 21:00,0,0,0
2018/4/16 21:30,0,0,0
2018/4/16 22:00,0,0,0
2018/4/16 22:30,0,0,0
2018/4/16 23:00,0,0,0
2018/4/16 23:30,0,0,0
2018/4/17 0:00,0,0,0
2018/4/17 0:30,0,0,0
2018/4/17 1:00,0,0,0
2018/4/17 1:30,0,0,0
2018/4/17 2:00,0,0,0
2018/4/17 2:30,0,0,0
2018/4/17 3:00,0,0,0
2018/4/17 3:30,0,0,0
2018/4/17 4:00,0,0,0
2018/4/17 4:30,0,0,0
2018/4/17 5:00,0,0,0
2018/4/17 5:30,0,0,0
2018/4/17 6:00,0.2,0,0.2
2018/4/17 6:30,0.9,0,0.9
2018/4/17 7:00,2.1,0,2.1
2018/4/17 7:30,5.5,0.2,5.7
2018/4/17 8:00,8.8,0.2,9
2018/4/17 8:30,13,0.3,13.3
2018/4/17 9:00,16.8,0.4,17.2
2018/4/17 9:30,12.4,0.6,13
2018/4/17 10:00,10.7,0.4,11.1
2018/4/17 10:30,9.5,0.3,9.8
2018/4/17 11:00,11.4,0.4,11.8
2018/4/17 11:30,13.5,0.3,13.8
2018/4/17 12:00,13.9,0.3,14.2
2018/4/17 12:30,14.3,0.2,14.5
2018/4/17 13:00,9.5,0.3,9.8
2018/4/17 13:30,10.2,0.4,10.6
2018/4/17 14:00,8.5,0.4,8.9
2018/4/17 14:30,11.1,0.5,11.6
2018/4/17 15:00,9.4,0.8,10.2
2018/4/17 15:30,12.8,0.7,13.5
2018/4/17 16:00,20.8,0.7,21.5
2018/4/17 16:30,15,0.6,15.6
2018/4/17 17:00,8.7,0.3,9
2018/4/17 17:30,6.4,0.2,6.6
2018/4/17 18:00,2.5,0.3,2.8
2018/4/17 18:30,0.5,0.7,1.2
2018/4/17 19:00,0,0.9,0.9
2018/4/17 19:30,0,0.9,0.9
2018/4/17 20:00,0,1.2,1.2
2018/4/17 20:30,0,1.8,1.8
2018/4/17 21:00,0,1.5,1.5
2018/4/17 21:30,0,1.6,1.6
2018/4/17 22:00,0,1.4,1.4
2018/4/17 22:30,0,1.3,1.3
2018/4/17 23:00,0,1.4,1.4
2018/4/17 23:30,0,1.1,1.1
2018/4/18 0:00,0,1.1,1.1
2018/4/18 0:30,0,1.1,1.1
2018/4/18 1:00,0,1,1
2018/4/18 1:30,0,0.9,0.9
2018/4/18 2:00,0,1.1,1.1
2018/4/18 2:30,0,0.9,0.9
2018/4/18 3:00,0,1.1,1.1
2018/4/18 3:30,0,1.1,1.1
2018/4/18 4:00,0,1.1,1.1
2018/4/18 4:30,0,0.9,0.9
2018/4/18 5:00,0,0.8,0.8
2018/4/18 5:30,0,1,1
2018/4/18 6:00,0.2,0.8,1
2018/4/18 6:30,3.6,0.8,4.4
2018/4/18 7:00,15.3,0.7,16
2018/4/18 7:30,30.9,0.7,31.6
2018/4/18 8:00,48.1,0.7,48.8
2018/4/18 8:30,61,1,62
2018/4/18 9:00,71.5,0.9,72.4
2018/4/18 9:30,76.8,0.9,77.7
2018/4/18 10:00,86.7,0.8,87.5
2018/4/18 10:30,95.8,1,96.8
2018/4/18 11:00,100.6,0.8,101.4
2018/4/18 11:30,105.9,0.7,106.6
2018/4/18 12:00,99.7,1,100.7
2018/4/18 12:30,102.6,1,103.6
2018/4/18 13:00,87.7,1.1,88.8
2018/4/18 13:30,79.5,1.3,80.8
2018/4/18 14:00,85.2,1.4,86.6
2018/4/18 14:30,78.7,1.6,80.3
2018/4/18 15:00,58.4,1.6,60
2018/4/18 15:30,51.9,1.5,53.4
2018/4/18 16:00,43.3,1.4,44.7
2018/4/18 16:30,32.1,1.5,33.6
2018/4/18 17:00,22.3,1.6,23.9
2018/4/18 17:30,15.1,1.5,16.6
2018/4/18 18:00,6.8,1.3,8.1
2018/4/18 18:30,0.5,0.9,1.4
2018/4/18 19:00,0,0.8,0.8
2018/4/18 19:30,0,0.8,0.8
2018/4/18 20:00,0,0.7,0.7
2018/4/18 20:30,0,0.5,0.5
2018/4/18 21:00,0,0.5,0.5
2018/4/18 21:30,0,0.5,0.5
2018/4/18 22:00,0,0.3,0.3
2018/4/18 22:30,0,0.3,0.3
2018/4/18 23:00,0,0.2,0.2
2018/4/18 23:30,0,0.2,0.2
2018/4/19 0:00,0,0.3,0.3
2018/4/19 0:30,0,0.3,0.3
2018/4/19 1:00,0,0.4,0.4
2018/4/19 1:30,0,0.4,0.4
2018/4/19 2:00,0,0.5,0.5
2018/4/19 2:30,0,0.6,0.6
2018/4/19 3:00,0,0.6,0.6
2018/4/19 3:30,0,0.6,0.6
2018/4/19 4:00,0,0.6,0.6
2018/4/19 4:30,0,0.5,0.5